KJ7AZ-3 Weather Reports


time (UTC)temp
F
wind
direction
speed
knots
gust
knots
rain 1hr
in
rain 24hr
in
rain mn
in
humidity
%
barometer
mb
20260903050352 69 359 0.0 0.0 0.00 0.00 0.00
20260903044853 69 359 0.0 0.0 0.00 0.00 0.00
20260903043352 71 359 0.0 0.0 0.00 0.00 0.00
20260903041851 72 359 0.0 0.0 0.00 0.00 0.00
20260903040351 73 359 0.0 0.0 0.00 0.00 0.00
20260903034851 73 359 0.0 0.0 0.00 0.00 0.00
20260903033349 74 359 0.0 0.0 0.00 0.00 0.00
20260903031849 73 359 0.0 0.0 0.00 0.00 0.00
20260903030348 73 359 0.0 0.0 0.00 0.00 0.00
20260903024848 74 359 0.0 0.0 0.00 0.00 0.00
20260903021847 77 359 0.0 0.0 0.00 0.00 0.00
20260903014845 80 359 0.0 0.0 0.00 0.00 0.00
20260903013345 82 339 0.0 0.0 0.00 0.00 0.00
20260903011844 83 1 0.0 0.0 0.00 0.00 0.00
20260903010344 86 359 0.0 0.0 0.00 0.00 0.00
20260903004844 85 283 0.0 0.0 0.00 0.00 0.00
20260903003343 87 229 0.0 0.0 0.00 0.00 0.00
20260903001842 88 338 1.7 3.5 0.00 0.00 0.00
20260903000342 90 25 2.6 0.0 0.00 0.00 0.00
20260902234841 86 18 0.0 0.0 0.00 0.00 0.00
20260902233341 86 335 1.7 0.0 0.00 0.00 0.00
20260902231840 87 318 1.7 0.9 0.00 0.00 0.00
20260902230339 90 271 0.0 0.0 0.00 0.00 0.00
20260902224838 87 302 0.9 2.6 0.00 0.00 0.00
20260902223337 93 308 0.0 0.0 0.00 0.00 0.00
20260902221836 94 287 0.0 0.0 0.00 0.00 0.00
20260902220335 93 10 1.7 0.0 0.00 0.00 0.00
20260902213335 88 291 0.9 0.0 0.00 0.00 0.00
20260902211834 86 301 1.7 1.7 0.00 0.00 0.00
20260902210332 85 277 1.7 2.6 0.00 0.00 0.00
20260902204832 87 291 4.3 1.7 0.00 0.00 0.00
20260902203331 88 257 1.7 2.6 0.00 0.00 0.00
20260902201829 87 37 0.9 0.0 0.00 0.00 0.00
20260902200329 87 321 0.9 1.7 0.00 0.00 0.00
20260902194828 89 349 0.9 0.0 0.00 0.00 0.00
20260902193330 91 329 2.6 0.0 0.00 0.00 0.00
20260902191826 88 359 3.5 4.3 0.00 0.00 0.00
20260902190325 91 31 4.3 2.6 0.00 0.00 0.00
20260902184824 89 309 2.6 2.6 0.00 0.00 0.00
20260902183324 87 349 3.5 5.2 0.00 0.00 0.00
20260902181823 84 333 0.0 0.0 0.00 0.00 0.00
20260902180322 85 302 0.0 0.9 0.00 0.00 0.00
20260902174821 87 143 0.0 0.0 0.00 0.00 0.00
20260902173320 86 13 3.5 2.6 0.00 0.00 0.00
20260902170319 85 80 2.6 4.3 0.00 0.00 0.00
20260902164819 83 350 3.5 0.9 0.00 0.00 0.00
20260902163318 82 316 2.6 4.3 0.00 0.00 0.00
20260902161818 83 359 0.9 2.6 0.00 0.00 0.00
20260902160319 82 20 1.7 0.9 0.00 0.00 0.00
20260902153317 79 281 2.6 2.6 0.00 0.00 0.00
20260902151817 78 349 1.7 0.0 0.00 0.00 0.00
20260902110316 63 242 0.0 0.0 0.00 0.00 0.00
20260902104814 63 242 0.0 0.0 0.00 0.00 0.00
20260902103318 63 242 0.0 0.0 0.00 0.00 0.00
20260902101813 63 242 0.0 0.0 0.00 0.00 0.00
20260902100313 63 242 0.0 0.0 0.00 0.00 0.00
20260902094813 64 242 0.0 0.0 0.00 0.00 0.00
20260902093311 64 242 0.0 0.0 0.00 0.00 0.00
20260902091811 65 242 0.0 0.0 0.00 0.00 0.00
20260902090310 65 242 0.0 0.0 0.00 0.00 0.00
20260902084810 65 242 0.0 0.0 0.00 0.00 0.00
20260902083310 67 242 0.9 0.0 0.00 0.00 0.00
20260902081809 67 108 0.0 0.0 0.00 0.00 0.00
20260902080309 66 108 0.0 0.0 0.00 0.00 0.00
20260902074808 67 108 0.0 0.0 0.00 0.00 0.00
20260902073308 67 108 0.0 0.0 0.00 0.00 0.00
20260902071807 68 108 0.0 0.0 0.00 0.00 0.00
20260902070307 68 108 0.0 0.0 0.00 0.00 0.00
20260902064806 68 108 0.0 0.0 0.00 0.00 0.00
20260902063306 67 108 0.0 0.0 0.00 0.00 0.00
20260902061805 65 108 0.0 0.0 0.00 0.00 0.00
20260902060305 65 108 0.0 0.0 0.00 0.00 0.00
20260902054805 65 108 0.0 0.0 0.00 0.00 0.00
20260902053304 66 108 0.0 0.0 0.00 0.00 0.00
20260902051804 67 108 0.0 0.0 0.00 0.00 0.00